Weather History for Ellensburg, WA

Change the Weather History Date:

Sunday, April 21, 2013

  Actual Average (KYKM) Record (KYKM)
Temperature  
Mean Temperature 49 °F 50 °F  
Max Temperature 59 °F 65 °F 85 °F (2009)
Min Temperature 41 °F 35 °F 19 °F (2008)
Degree Days  
Heating Degree Days 16 15  
Month to date heating degree days 353  
Since 1 July heating degree days 5557  
Cooling Degree Days 0 0  
Month to date cooling degree days 0  
Year to date cooling degree days 0  
Growing Degree Days 0 (Base 50)    
Moisture  
Dew Point 31 °F    
Average Humidity 52    
Maximum Humidity 67    
Minimum Humidity 36    
Precipitation  
Precipitation 0.00 in 0.02 in 0.78 in (1988)
Month to date precipitation 0.37  
Year to date precipitation 2.91  
Snow  
Snow 0.00 in 0.00 in T in (2008)
Month to date snowfall 0.0  
Year to date snowfall 8.6  
Since 1 July snowfall 21.6  
Snow Depth -    
Sea Level Pressure  
Sea Level Pressure 30.16 in    
Wind  
Wind Speed 16 mph (NW)    
Max Wind Speed 32 mph    
Max Gust Speed 39 mph    
Visibility 10 miles    
Events      
T = Trace of Precipitation, MM = Missing Value Source: NWS Daily Summary

Daily Weather History Graph

Daily Weather History Graph

Search for Another Location

Airport:

Trip Planner

Search our weather history database for the weather conditions in past years. The results will help you decide how hot, cold, wet, or windy it might be!

Date:

Astronomy

Apr. 21, 2013 Rise Set
Actual Time 6:02 AM PDT 7:59 PM PDT
Civil Twilight 5:30 AM PDT 8:32 PM PDT
Nautical Twilight 4:49 AM PDT 9:12 PM PDT
Astronomical Twilight 4:05 AM PDT 9:57 PM PDT
Moon 3:35 PM PDT (4/21) 3:44 AM PDT (4/21)
Length of Visible Light 15h 02m
Length of Day
13h 56m
Waxing Gibbous, 81% of the Moon is Illuminated
Apr 21
Waxing Gibbous
Apr 25
Full
May 2
Last Quarter
May 9
New
May 17
First Quarter

Hourly Weather History & Observations

Time (PDT) Temp. Windchill Dew Point Humidity Pressure Visibility Wind Dir Wind Speed Gust Speed Precip Events Conditions
12:53 AM 45.0 °F 40.1 °F 33.1 °F 63% 30.16 in 10.0 mi NW 9.2 mph - N/A   Overcast
1:53 AM 44.1 °F 37.7 °F 32.0 °F 63% 30.15 in 10.0 mi NW 12.7 mph - N/A   Mostly Cloudy
2:53 AM 44.1 °F 39.5 °F 32.0 °F 63% 30.15 in 10.0 mi NNW 8.1 mph - N/A   Mostly Cloudy
3:53 AM 42.1 °F 36.6 °F 32.0 °F 67% 30.15 in 10.0 mi NW 9.2 mph - N/A   Mostly Cloudy
4:53 AM 42.1 °F 37.1 °F 32.0 °F 67% 30.15 in 10.0 mi NW 8.1 mph - N/A   Clear
5:53 AM 41.0 °F 33.9 °F 30.9 °F 67% 30.15 in 10.0 mi WNW 12.7 mph - N/A   Clear
6:53 AM 43.0 °F 36.8 °F 32.0 °F 65% 30.16 in 10.0 mi WNW 11.5 mph - N/A   Clear
7:53 AM 46.9 °F - 32.0 °F 56% 30.16 in 10.0 mi West 16.1 mph 24.2 mph N/A   Clear
8:53 AM 50.0 °F - 32.0 °F 50% 30.14 in 10.0 mi WNW 19.6 mph 27.6 mph N/A   Clear
9:53 AM 51.1 °F - 30.9 °F 46% 30.13 in 10.0 mi NW 23.0 mph 29.9 mph N/A   Clear
10:53 AM 54.0 °F - 30.9 °F 41% 30.11 in 10.0 mi NW 23.0 mph 33.4 mph N/A   Clear
11:53 AM 55.9 °F - 30.9 °F 39% 30.10 in 10.0 mi NW 31.1 mph 38.0 mph N/A   Clear
12:53 PM 57.9 °F - 30.9 °F 36% 30.09 in 10.0 mi NW 28.8 mph 35.7 mph N/A   Clear
1:53 PM 57.9 °F - 30.9 °F 36% 30.10 in 10.0 mi NNW 28.8 mph 36.8 mph N/A   Mostly Cloudy
2:53 PM 57.0 °F - 32.0 °F 39% 30.10 in 10.0 mi NW 28.8 mph 35.7 mph N/A   Clear
3:53 PM 55.9 °F - 32.0 °F 40% 30.12 in 10.0 mi NW 32.2 mph 39.1 mph N/A   Clear
4:53 PM 54.0 °F - 32.0 °F 43% 30.12 in 10.0 mi WNW 27.6 mph 34.5 mph N/A   Clear
5:53 PM 53.1 °F - 30.9 °F 43% 30.14 in 10.0 mi NW 21.9 mph 31.1 mph N/A   Clear
6:53 PM 51.1 °F - 30.0 °F 44% 30.15 in 10.0 mi WNW 18.4 mph 24.2 mph N/A   Clear
7:53 PM 46.0 °F 39.6 °F 28.0 °F 50% 30.18 in 10.0 mi NW 15.0 mph - N/A   Clear
8:53 PM 44.1 °F 36.8 °F 27.0 °F 51% 30.23 in 10.0 mi NNW 16.1 mph - N/A   Partly Cloudy
9:53 PM 42.1 °F 35.2 °F 28.0 °F 58% 30.25 in 10.0 mi NW 12.7 mph - N/A   Clear
10:53 PM 41.0 °F 34.7 °F 28.0 °F 60% 30.27 in 10.0 mi NNW 10.4 mph - N/A   Scattered Clouds
11:53 PM 41.0 °F 33.9 °F 28.0 °F 60% 30.29 in 10.0 mi NW 12.7 mph - N/A   Clear